Starlink 31517

operational
NORAD ID: 59213 Int'l Des: 2024-046 Owner: SPXS Country: US Constellation: starlink
LEOCIRCULAR

About Starlink 31517

Description loading...

Live Position

Loading 3D Globe...

Upcoming Passes

Altitude History

Altitude vs Time

uPlot chart will show altitude changes over time

Two-Line Element Set

1 59213U 24046N 25304.77702609 -.00000194 00000-0 55948-5 0 9999
2 59213 53.1618 34.0642 0001332 105.1393 254.9756 15.30178718 93300
Epoch: Oct 31, 2025 • Age: 6 hours

Current Status

Altitude 482.8 km
Velocity 7.62 km/s
Sub-Earth Point -23.93°S, 38.8°W
Launch Date Mar 11, 2024
Age 1.6 years
Type internet

Technical Details

Classification Payload
Mass 730.00 kg
Dry Mass 700.00 kg
Total Mass 730.00 kg
Length 0.30 m
Diameter 4.10 m
Span 29.00 m
Shape Box + pan
Manufacturer SPXS
Bus Type Starlink V2M
Phase Status In Orbit
Owner/State SPXS/US

Large Constellations

Loading constellations...